User: anonymous   Login
Location: Unspecified
(0.0000°N, 0.0000°E)
Time: 04:13:23
(UTC+00:00)
Language:

MUOS - Orbit

View from above orbital plane
View from above orbital plane
View from above satellite
View from above satellite

Ground track
Ground track

The orbit data is extracted from the following two-line orbital elements,

1 38093U 12009A   15290.34521210 0.00000000  00000-0  00000-0 0    03
2 38093   3.8460 332.8162 0059725 180.4554 179.5526  1.00270000    01
Epoch (UTC): 17 October 2015 08:17:06
Eccentricity: 0.0059725
inclination: 3.8460°
perigee height: 35535 km
apogee height: 36038 km
right ascension of ascending node: 332.8162°
argument of perigee: 180.4554°
revolutions per day: 1.00270000
mean anomaly at epoch: 179.5526°
orbit number at epoch: 0

The dashed part of the orbit path shows where the satellite is in the earth's shadow,  

DLR